Wind_Speed
1 1 1 0 1 0 0 1 1 1 1 2 1 2 2 1 2 2 2 2 2 3 3 4 4 5 5 5 5 5 5 6 6 5 4 4 4 5 5 6 6 5 5
1 1 1 0 1 1 0 0 1 1 1 1 2 2 2 2 1 2 2 2 3 2 2 4 3 4 5 6 6 6 6 6 6 5 5 4 4 5 6 6 6 6 6
1 1 1 0 1 1 1 0 1 1 1 1 2 2 2 2 2 2 2 2 2 1 3 4 4 4 5 6 6 6 6 6 6 6 6 6 6 7 7 7 7 7 7
2 2 1 1 0 1 0 0 1 1 1 1 1 2 2 2 1 1 2 2 2 2 3 4 4 4 5 6 6 6 6 6 6 6 7 7 6 7 8 8 8 8 8
3 2 2 1 1 1 0 0 1 1 1 1 1 1 1 2 1 1 1 2 2 3 3 3 4 4 5 5 5 6 6 6 6 7 7 7 7 7 8 8 9 9 9
4 3 3 3 3 2 1 1 2 2 1 2 2 2 1 1 1 1 1 2 2 3 3 3 3 3 4 4 5 6 6 6 7 7 7 7 7 8 8 8 9 10 10
5 4 4 4 3 3 3 2 2 3 3 3 3 3 2 2 2 2 2 2 2 3 3 3 3 3 3 4 5 5 6 7 6 7 7 7 8 8 9 10 10 10 11
6 5 5 5 5 4 4 4 4 4 4 4 4 4 3 3 3 3 3 3 3 4 4 3 3 4 4 5 5 5 6 7 7 8 8 8 9 9 9 10 10 11 11
6 6 6 6 6 6 5 5 5 5 5 5 5 4 4 4 4 4 4 4 4 4 4 4 4 5 5 5 5 6 7 8 8 8 9 9 9 10 10 10 11 11 12
6 6 6 6 6 6 6 5 5 5 5 5 5 5 5 5 4 4 5 5 5 5 5 5 5 5 5 6 6 7 7 8 9 9 9 9 10 10 11 10 11 11 12
6 6 6 6 6 6 6 6 6 6 6 5 5 5 5 5 5 5 6 6 6 6 6 6 6 7 7 7 7 7 7 7 8 8 8 8 9 10 10 11 11 11 12
6 6 6 6 6 7 7 7 6 6 6 6 6 6 6 6 6 6 6 6 7 7 7 7 8 8 8 8 7 7 7 7 7 7 8 8 9 9 9 10 11 12 12
7 7 7 7 7 7 7 7 7 7 7 7 7 6 6 7 7 7 7 7 7 8 8 8 8 9 9 8 8 8 8 8 7 8 8 9 9 10 10 11 12 12 13
7 7 7 8 8 8 8 8 7 7 6 7 7 7 7 6 7 7 7 7 8 8 8 8 8 9 9 9 9 9 9 8 8 8 9 10 10 10 10 11 12 12 11
7 7 7 8 8 8 8 8 7 7 7 6 7 7 7 7 6 6 7 7 7 7 7 8 8 9 9 9 9 9 9 9 8 9 9 9 10 11 11 11 11 11 11
8 8 8 9 9 8 8 8 8 7 7 6 6 7 7 7 7 6 7 7 7 8 7 7 8 8 8 9 9 9 9 9 9 9 9 9 10 11 11 11 11 11 11
9 9 9 10 10 9 9 9 8 8 7 7 7 7 7 7 7 8 8 8 8 8 8 8 9 8 8 9 9 9 10 10 10 10 10 10 11 11 11 12 12 12 12
9 10 10 10 10 10 9 9 9 8 8 8 7 7 7 8 8 8 9 9 9 9 9 9 8 9 9 9 9 9 10 10 10 10 10 11 12 12 12 12 12 13 13
10 10 10 9 10 10 10 10 10 9 9 9 9 8 8 8 8 8 9 9 10 9 9 9 9 9 10 10 10 10 10 11 11 11 11 12 12 12 12 12 12 13 13
11 11 11 10 10 10 10 11 11 10 10 10 10 10 9 9 9 9 9 10 10 10 10 10 10 10 10 11 12 11 12 12 12 12 12 12 13 12 13 13 13 13 13
12 12 12 12 12 11 11 11 11 11 11 11 11 11 10 10 10 10 10 10 10 10 10 10 11 11 11 12 12 12 12 13 13 12 12 12 13 13 13 13 13 13 12
14 13 13 13 13 12 12 12 12 11 11 12 12 12 11 11 11 11 11 11 10 10 10 11 11 11 12 12 13 13 13 13 13 13 13 13 13 13 14 13 13 13 12
15 14 14 14 14 13 13 13 13 12 12 12 12 13 12 12 12 12 12 12 11 11 11 10 11 12 12 13 13 13 13 13 13 13 13 14 13 14 14 14 14 14 15
15 16 16 16 15 15 15 15 14 13 13 12 13 13 14 14 14 14 14 13 12 12 12 12 12 12 12 12 12 13 13 13 13 14 15 15 15 15 15 15 15 15 15
16 16 17 17 17 17 16 16 16 15 14 13 13 14 15 15 15 15 15 14 13 13 13 13 13 13 13 13 13 14 13 13 13 14 14 14 15 16 16 16 16 16 15
18 18 18 18 18 18 18 17 17 17 16 15 15 16 16 16 16 16 16 15 15 15 14 14 14 14 14 14 14 14 15 15 15 15 15 15 15 16 16 17 17 16 16
Wind_Direction
130 127 150 151 197 210 103 106 64 71 63 51 44 32 9 353 357 354 338 324 301 290 276 266 256 263 263 260 257 260 272 272 273 283 282 275 269 266 265 260 252 252 249
144 126 145 173 217 211 247 330 24 39 37 22 16 29 37 32 29 16 4 341 316 299 277 263 265 266 265 259 255 260 266 266 269 276 276 275 269 269 269 264 257 259 258
149 146 137 158 170 193 205 255 333 338 10 6 2 359 10 17 11 9 359 348 332 302 264 265 273 272 270 262 260 259 262 268 274 274 278 281 272 274 277 269 268 266 262
183 185 179 184 175 168 210 298 346 334 347 3 2 360 11 20 13 5 358 348 335 315 287 282 282 277 273 267 264 263 263 273 277 280 282 283 277 275 274 275 270 269 268
221 224 228 226 217 211 250 308 339 323 333 325 344 6 7 349 349 338 341 335 326 320 308 298 289 286 279 276 275 271 267 270 276 279 279 277 276 272 271 274 271 271 274
231 235 232 228 229 237 249 286 303 293 292 304 304 325 344 347 344 314 330 334 337 323 316 312 296 290 288 286 279 273 269 270 274 277 273 276 275 272 273 276 279 277 276
239 241 237 232 237 244 252 272 289 299 290 288 296 305 311 315 301 285 281 308 318 324 325 317 298 290 292 288 280 274 275 275 276 279 278 278 276 276 278 277 279 280 276
241 241 239 238 245 251 257 267 279 286 285 280 274 281 292 291 280 270 268 279 289 303 314 312 300 292 295 297 294 287 286 283 283 280 276 277 275 276 276 276 279 278 276
240 240 241 243 248 255 262 267 270 279 280 276 265 268 277 274 266 260 266 270 280 291 296 297 296 294 293 292 296 293 288 281 278 278 279 278 275 276 276 274 275 277 278
242 242 242 244 251 256 259 265 267 272 276 276 268 259 261 262 263 258 261 267 275 282 286 289 292 293 294 295 295 297 292 282 277 275 277 275 275 275 276 276 277 278 279
244 248 250 251 257 258 262 264 262 264 268 269 264 258 260 260 260 261 263 265 269 275 279 284 287 292 291 293 296 296 296 292 285 279 279 278 278 277 277 276 276 279 278
246 249 253 257 260 261 263 263 263 264 265 264 261 257 260 260 262 263 266 269 270 275 278 283 286 289 287 290 291 291 293 293 290 284 281 282 281 280 283 281 280 281 280
251 251 252 257 262 265 266 266 267 269 268 266 263 262 265 266 265 266 267 269 269 271 273 281 281 285 285 285 287 290 290 290 289 285 282 281 283 286 289 289 287 283 279
252 252 252 255 259 262 265 268 267 265 268 270 267 267 269 272 271 267 267 268 269 271 275 282 285 287 287 284 283 289 288 287 291 289 286 284 285 287 291 290 289 283 280
254 255 255 257 258 258 259 261 261 260 264 268 267 267 270 274 275 275 271 268 268 272 280 286 286 286 288 286 282 284 285 284 293 294 292 290 286 284 287 288 284 282 280
255 254 256 258 260 257 257 256 255 253 259 265 267 267 267 271 274 280 279 276 273 274 278 285 288 286 286 285 284 283 285 284 288 290 292 291 289 288 287 286 283 280 276
256 255 256 258 259 259 257 255 254 255 257 261 265 266 269 269 273 278 282 280 279 276 275 280 285 286 288 289 289 288 287 288 287 287 289 292 292 291 289 287 286 284 283
258 257 257 258 257 255 255 255 256 256 257 258 264 267 268 272 276 281 281 280 281 280 281 283 284 283 285 288 288 288 288 288 290 288 288 291 291 291 291 289 289 287 285
259 259 255 254 254 252 253 255 258 259 258 259 263 268 271 273 275 278 277 276 279 280 279 283 284 284 284 284 285 285 285 286 286 286 288 288 288 289 289 289 287 288 290
258 259 259 255 256 254 254 258 261 262 258 258 261 266 269 271 275 277 276 278 280 277 278 283 285 284 284 283 283 283 282 281 282 282 284 287 288 289 289 288 288 288 288
259 258 257 255 257 256 257 259 261 260 259 258 258 261 264 268 276 281 282 283 281 280 280 280 282 283 283 281 281 282 282 281 282 282 283 287 288 287 288 286 286 287 286
257 256 256 255 257 256 257 259 261 261 260 258 256 258 262 268 274 279 280 282 282 280 281 282 282 280 279 279 279 280 281 282 284 285 286 287 287 286 285 284 283 282 285
257 254 253 255 255 255 256 259 262 261 263 261 258 258 264 270 275 276 278 279 282 282 283 284 283 278 277 278 279 279 279 281 284 285 285 285 285 285 283 282 284 285 287
259 257 255 254 255 256 257 259 261 258 258 259 260 262 266 269 272 275 277 278 281 284 284 286 285 283 282 281 279 278 279 280 280 281 282 284 285 285 283 282 285 285 286
261 260 256 255 255 255 256 258 258 256 257 263 265 265 267 269 271 273 274 276 281 281 283 286 284 287 285 284 281 281 280 280 280 279 280 283 284 284 283 284 285 285 283
261 261 256 256 255 254 254 255 256 255 256 261 265 267 267 268 269 269 271 273 279 280 279 281 283 286 287 288 286 286 284 282 282 282 280 282 282 283 284 284 284 284 284
Height
5867 5867 5867 5867 5867 5867 5868 5868 5868 5868 5868 5868 5868 5868 5869 5869 5869 5869 5870 5870 5870 5870 5870 5871 5872 5873 5873 5874 5874 5875 5875 5875 5876 5876 5876 5876 5876 5877 5877 5877 5877 5878 5878
5867 5867 5867 5867 5867 5868 5868 5868 5868 5868 5868 5868 5868 5868 5868 5869 5869 5869 5869 5869 5869 5869 5870 5870 5871 5872 5872 5873 5873 5873 5874 5874 5874 5875 5875 5875 5875 5876 5876 5876 5876 5876 5877
5867 5867 5867 5867 5867 5867 5868 5868 5868 5868 5868 5868 5868 5868 5868 5869 5869 5869 5869 5869 5869 5869 5870 5870 5871 5871 5871 5872 5872 5872 5873 5873 5873 5874 5874 5874 5874 5874 5874 5874 5875 5875 5875
5867 5867 5867 5867 5867 5868 5868 5868 5868 5868 5868 5868 5868 5868 5868 5868 5868 5869 5869 5869 5869 5869 5870 5870 5870 5870 5870 5871 5871 5871 5872 5872 5872 5873 5873 5873 5873 5873 5873 5873 5873 5874 5874
5866 5867 5867 5867 5867 5868 5868 5868 5868 5868 5868 5868 5868 5868 5868 5868 5868 5868 5868 5868 5869 5869 5869 5869 5869 5869 5869 5870 5870 5870 5870 5871 5871 5871 5871 5872 5872 5872 5872 5872 5872 5872 5872
5866 5866 5866 5867 5867 5867 5867 5867 5867 5867 5867 5867 5867 5867 5868 5868 5868 5868 5868 5868 5868 5869 5868 5868 5869 5869 5869 5869 5869 5869 5869 5869 5869 5870 5870 5870 5870 5870 5870 5870 5870 5870 5870
5865 5866 5866 5866 5867 5867 5867 5867 5867 5867 5867 5867 5867 5867 5867 5867 5867 5867 5868 5868 5868 5868 5868 5868 5868 5868 5868 5868 5868 5868 5868 5868 5868 5868 5868 5868 5868 5868 5868 5868 5868 5868 5868
5865 5865 5865 5865 5866 5866 5866 5866 5866 5866 5866 5866 5866 5866 5866 5866 5867 5867 5867 5867 5867 5867 5867 5867 5867 5867 5867 5867 5867 5866 5866 5866 5866 5866 5866 5866 5866 5866 5866 5866 5866 5866 5865
5863 5864 5864 5864 5865 5865 5865 5865 5865 5865 5865 5865 5865 5865 5865 5865 5866 5866 5866 5866 5866 5867 5866 5866 5866 5866 5866 5866 5865 5865 5865 5865 5865 5865 5864 5864 5864 5864 5864 5863 5863 5863 5862
5862 5862 5863 5863 5863 5864 5864 5864 5864 5864 5864 5864 5864 5864 5864 5865 5865 5865 5865 5865 5865 5865 5865 5865 5865 5865 5865 5864 5864 5864 5863 5863 5862 5863 5862 5862 5862 5862 5861 5861 5860 5860 5860
5861 5861 5861 5862 5862 5862 5863 5863 5863 5863 5863 5863 5863 5863 5863 5863 5864 5864 5864 5864 5864 5864 5864 5864 5864 5863 5863 5863 5863 5862 5862 5861 5861 5860 5860 5860 5860 5859 5859 5858 5858 5857 5857
5859 5860 5860 5860 5861 5861 5861 5861 5861 5861 5861 5861 5861 5862 5862 5862 5862 5862 5862 5863 5863 5862 5862 5862 5862 5862 5862 5861 5861 5860 5860 5859 5859 5858 5858 5858 5858 5857 5856 5856 5855 5854 5854
5858 5858 5859 5859 5859 5859 5859 5859 5860 5860 5860 5860 5860 5860 5860 5860 5861 5861 5861 5861 5861 5861 5861 5861 5860 5860 5860 5859 5859 5859 5858 5858 5857 5857 5856 5856 5856 5855 5854 5853 5852 5851 5850
5856 5857 5857 5857 5857 5857 5858 5858 5858 5858 5858 5858 5858 5859 5859 5859 5859 5859 5859 5859 5859 5859 5859 5859 5858 5858 5858 5857 5857 5857 5856 5856 5855 5855 5854 5854 5854 5853 5852 5851 5850 5849 5848
5855 5855 5855 5856 5856 5856 5856 5856 5856 5857 5857 5857 5857 5857 5857 5857 5857 5857 5857 5857 5857 5857 5857 5857 5856 5856 5856 5855 5855 5855 5854 5854 5853 5853 5852 5852 5851 5851 5850 5849 5848 5847 5846
5853 5853 5854 5854 5854 5854 5854 5855 5855 5855 5855 5855 5855 5855 5856 5856 5856 5856 5856 5855 5855 5855 5855 5855 5854 5854 5854 5853 5853 5852 5852 5852 5851 5851 5850 5850 5849 5848 5848 5847 5846 5844 5844
5851 5852 5852 5852 5852 5852 5853 5853 5853 5853 5853 5854 5854 5854 5854 5854 5854 5854 5854 5854 5853 5853 5853 5853 5852 5852 5851 5851 5850 5850 5850 5849 5849 5848 5848 5847 5847 5846 5845 5844 5844 5843 5842
5849 5850 5850 5850 5850 5850 5851 5851 5851 5851 5852 5852 5852 5852 5852 5852 5852 5852 5852 5852 5851 5851 5851 5850 5850 5850 5849 5849 5848 5848 5847 5847 5846 5846 5845 5844 5844 5843 5842 5842 5841 5840 5839
5847 5847 5847 5847 5848 5848 5849 5849 5849 5849 5850 5850 5850 5850 5850 5850 5850 5850 5850 5850 5849 5849 5849 5848 5848 5847 5847 5847 5846 5846 5845 5844 5844 5843 5842 5842 5841 5840 5839 5839 5838 5837 5836
5844 5845 5845 5845 5845 5846 5846 5846 5847 5847 5847 5847 5848 5848 5848 5848 5848 5848 5848 5847 5847 5847 5846 5846 5846 5845 5845 5844 5843 5843 5842 5842 5841 5840 5840 5839 5838 5837 5836 5835 5834 5833 5833
5842 5842 5842 5842 5843 5843 5844 5844 5844 5844 5845 5845 5845 5845 5846 5846 5846 5846 5845 5845 5844 5844 5844 5843 5843 5842 5842 5841 5840 5840 5839 5839 5838 5837 5836 5836 5835 5834 5833 5832 5831 5830 5829
5839 5839 5839 5839 5840 5840 5841 5841 5841 5842 5842 5842 5842 5843 5843 5843 5843 5843 5843 5842 5842 5841 5841 5840 5840 5839 5839 5838 5837 5837 5836 5835 5834 5834 5833 5832 5831 5830 5829 5829 5828 5826 5825
5835 5835 5836 5836 5836 5837 5838 5838 5838 5839 5839 5839 5839 5840 5840 5840 5840 5840 5840 5839 5839 5839 5838 5838 5837 5836 5836 5835 5834 5833 5832 5832 5831 5830 5829 5829 5828 5827 5826 5825 5824 5823 5822
5831 5831 5832 5832 5833 5833 5834 5835 5835 5835 5835 5835 5836 5836 5837 5837 5837 5836 5836 5836 5836 5835 5835 5834 5834 5833 5833 5832 5830 5829 5829 5828 5828 5827 5826 5825 5824 5823 5822 5821 5820 5819 5818
5827 5827 5827 5828 5828 5829 5830 5831 5831 5832 5832 5832 5832 5833 5833 5833 5833 5833 5833 5832 5832 5832 5832 5831 5830 5830 5829 5828 5827 5826 5825 5824 5823 5823 5822 5821 5819 5818 5817 5817 5816 5815 5814
5822 5822 5823 5823 5824 5825 5825 5826 5827 5827 5828 5828 5828 5829 5829 5829 5829 5829 5829 5828 5828 5828 5828 5827 5826 5826 5825 5824 5823 5822 5821 5821 5820 5818 5817 5816 5815 5814 5813 5812 5811 5810 5809